Location: Bou Ouachlou
(32.7770°N, 5.6009°W)
Time: 19:03:41
(UTC+00:00)

BREEZE M DEB (TANK) - Pass Details

Date: 07 June 2020
Orbit: 284 x 14550 km, 49.5° (Epoch: 04 July)

Event Time Altitude Azimuth Distance (km) Brightness Sun altitude
Exits shadow 03:41:04 - 293° (WNW) 2,080 5.5 -16.8°
Reaches altitude 10° 03:41:26 10° 291° (WNW) 1,936 5.3 -16.8°
Maximum altitude 03:45:17 46° 216° (SW) 1,383 4.4 -16.2°
Drops below altitude 10° 03:58:05 10° 149° (SSE) 6,274 8.1 -14.1°
Sets 04:07:30 0° 146° (SE) 9,582 9.1 -12.6°
